Regional Weather Roundup
Issued by NWS Goodland, KS

Home | Current Version | Previous Version | Text Only | Print | Product List | Glossary Off
Versions: 1 2 3 4 5 6 7 8 9 10 11 12 13 14 15 16 17 18 19 20 21 22 23 24 25 26 27 28 29 30 31 32 33 34 35 36 37 38 39 40 41 42 43 44 45 46 47 48 49 50

000
ASUS43 KGLD 200108
RWRGLD

GOODLAND FORECAST AREA HOURLY WEATHER ROUNDUP
NATIONAL WEATHER SERVICE GOODLAND KS
700 PM MDT THU OCT 19 2017

...OFFICIAL OBSERVATIONS...

CITY           SKY/WX    TMP DP  RH WIND       PRES   REMARKS
GOODLAND KS    CLEAR     62  46  55 S9        29.92F
HILL CITY KS   CLEAR     70  41  34 S10       29.95R
IMPERIAL NEB   CLOUDY    63  42  46 SE12      29.89S
MCCOOK NEB     CLOUDY    68  45  43 S12       29.90S
AKRON CO       CLOUDY    65  33  30 S15       29.91S
BURLINGTON CO  CLOUDY    57  44  62 S9        29.94F
LIMON CO       CLOUDY    52  35  52 S7        29.97S
$$

...UNOFFICIAL OBSERVATIONS...

CITY           SKY/WX    TMP DP  RH WIND       PRES   REMARKS
COLBY KS       CLOUDY    66  46  48 SE12      29.95S
NORTON KS      CLEAR     68  34  28 SE10      29.92
SHARON SPRINGS   N/A     65  45  49 S7          N/A
TRENTON NEB      N/A     68  32  26 S9          N/A
YUMA CO        FAIR      59  30  33 SE7       29.90S
$$



USA.gov is the U.S. government's official web portal to all federal, state and local government web resources and services.